No particular awareness of the weather is required.    There are no Weather-warnings


Meteo18 Weather Cam more information Meteo18 Weather Cam


Thunder radar more information blitzortung!


Rain radar more information rain snow radar


Visit our other weather sites:

Template documentation
and downloads

And another site



Weather Underground History page Text

Daily Summary for September 12, 2017 Units:  Metric    English   Both
« Previous Day
Next Day »
Daily Weekly Monthly Yearly Custom
  High: Low: Average:
Temperature: 18.9 °C 11.1 °C 14.5 °C
Dew Point: 10.6 °C 6.5 °C 9.4 °C
Humidity: 93 % 45 % 73 %
Wind Speed: 25.7 km/h 0.0 km/h 9.6 km/h
Wind Gust: 37.0 km/h - -
Wind:- - WSW
Pressure: 1017.2 hPa 1009.7 hPa -
Precipitation: 0.0 mm    
Historical Graphs
 
 
Tabular Data for September 12, 2017
Time Temperature Dew Point Pressure Wind Wind Speed Wind Gust Humidity Rainfall Rate (Hourly)
00:02 12.9 °C 10.4 °C 1009.7 hPa SSW 4.8 km/h 12.9 km/h 85 % 0.0 mm
00:12 12.9 °C 10.3 °C 1009.7 hPa SW 8.0 km/h 11.3 km/h 84 % 0.0 mm
00:17 12.9 °C 10.1 °C 1009.7 hPa WSW 4.8 km/h 11.3 km/h 83 % 0.0 mm
00:22 13.1 °C 10.1 °C 1009.7 hPa WSW 11.3 km/h 17.7 km/h 82 % 0.0 mm
00:32 13.3 °C 9.7 °C 1009.7 hPa SW 12.9 km/h 17.7 km/h 79 % 0.0 mm
00:37 13.4 °C 9.4 °C 1010.0 hPa West 12.9 km/h 19.3 km/h 77 % 0.0 mm
00:42 13.4 °C 9.6 °C 1009.7 hPa West 12.9 km/h 25.7 km/h 78 % 0.0 mm
00:47 13.4 °C 9.4 °C 1009.7 hPa West 12.9 km/h 25.7 km/h 77 % 0.0 mm
00:52 13.4 °C 9.4 °C 1009.7 hPa West 4.8 km/h 20.9 km/h 77 % 0.0 mm
00:57 13.5 °C 9.5 °C 1009.7 hPa SW 14.5 km/h 20.9 km/h 77 % 0.0 mm
01:02 13.6 °C 9.6 °C 1010.0 hPa WSW 8.0 km/h 20.9 km/h 77 % 0.0 mm
01:07 13.6 °C 9.8 °C 1009.7 hPa WSW 12.9 km/h 20.9 km/h 78 % 0.0 mm
01:12 13.6 °C 9.8 °C 1009.7 hPa WSW 4.8 km/h 25.7 km/h 78 % 0.0 mm
01:17 13.6 °C 9.8 °C 1009.7 hPa WSW 8.0 km/h 25.7 km/h 78 % 0.0 mm
01:22 13.5 °C 9.9 °C 1009.7 hPa WSW 9.7 km/h 22.5 km/h 79 % 0.0 mm
01:27 13.4 °C 9.8 °C 1010.0 hPa West 12.9 km/h 22.5 km/h 79 % 0.0 mm
01:32 13.4 °C 10.0 °C 1010.0 hPa West 14.5 km/h 20.9 km/h 80 % 0.0 mm
01:37 13.3 °C 10.1 °C 1010.0 hPa SW 3.2 km/h 19.3 km/h 81 % 0.0 mm
01:42 13.2 °C 10.0 °C 1010.0 hPa West 12.9 km/h 19.3 km/h 81 % 0.0 mm
01:47 13.1 °C 10.1 °C 1010.0 hPa West 8.0 km/h 17.7 km/h 82 % 0.0 mm
01:52 13.0 °C 10.2 °C 1009.7 hPa SSW 8.0 km/h 22.5 km/h 83 % 0.0 mm
01:57 12.9 °C 10.1 °C 1009.7 hPa SW 11.3 km/h 22.5 km/h 83 % 0.0 mm
02:02 12.8 °C 10.2 °C 1010.0 hPa WSW 17.7 km/h 22.5 km/h 84 % 0.0 mm
02:12 12.7 °C 10.2 °C 1010.0 hPa West 9.7 km/h 20.9 km/h 85 % 0.0 mm
02:17 12.7 °C 10.4 °C 1010.0 hPa SW 8.0 km/h 20.9 km/h 86 % 0.0 mm
02:22 12.6 °C 10.3 °C 1010.0 hPa West 12.9 km/h 20.9 km/h 86 % 0.0 mm
02:32 12.6 °C 10.5 °C 1010.0 hPa West 8.0 km/h 20.9 km/h 87 % 0.0 mm
02:42 12.5 °C 10.4 °C 1010.0 hPa West 8.0 km/h 25.7 km/h 87 % 0.0 mm
02:47 12.5 °C 10.4 °C 1010.4 hPa WSW 12.9 km/h 25.7 km/h 87 % 0.0 mm
02:52 12.4 °C 10.3 °C 1010.4 hPa WSW 6.4 km/h 22.5 km/h 87 % 0.0 mm
02:57 12.4 °C 10.3 °C 1010.4 hPa WSW 12.9 km/h 19.3 km/h 87 % 0.0 mm
03:02 12.4 °C 10.5 °C 1010.4 hPa WSW 3.2 km/h 19.3 km/h 88 % 0.0 mm
03:07 12.4 °C 10.5 °C 1010.4 hPa West 6.4 km/h 19.3 km/h 88 % 0.0 mm
03:12 12.3 °C 10.4 °C 1010.4 hPa WSW 8.0 km/h 19.3 km/h 88 % 0.0 mm
03:22 12.3 °C 10.4 °C 1010.7 hPa WSW 4.8 km/h 17.7 km/h 88 % 0.0 mm
03:27 12.3 °C 10.4 °C 1010.7 hPa West 6.4 km/h 16.1 km/h 88 % 0.0 mm
03:32 12.3 °C 10.5 °C 1010.7 hPa SW 8.0 km/h 16.1 km/h 89 % 0.0 mm
03:42 12.3 °C 10.4 °C 1011.1 hPa WSW 6.4 km/h 17.7 km/h 88 % 0.0 mm
03:47 12.4 °C 10.5 °C 1011.1 hPa WSW 9.7 km/h 17.7 km/h 88 % 0.0 mm
03:52 12.4 °C 10.5 °C 1011.1 hPa SW 8.0 km/h 17.7 km/h 88 % 0.0 mm
03:57 12.4 °C 10.5 °C 1011.1 hPa SSW 4.8 km/h 16.1 km/h 88 % 0.0 mm
04:02 12.4 °C 10.6 °C 1011.1 hPa West 12.9 km/h 16.1 km/h 89 % 0.0 mm
04:12 12.3 °C 10.5 °C 1011.1 hPa WSW 8.0 km/h 17.7 km/h 89 % 0.0 mm
04:17 12.3 °C 10.5 °C 1011.1 hPa WSW 6.4 km/h 17.7 km/h 89 % 0.0 mm
04:22 12.3 °C 10.5 °C 1011.1 hPa WSW 3.2 km/h 14.5 km/h 89 % 0.0 mm
04:32 12.3 °C 10.5 °C 1011.1 hPa West 4.8 km/h 17.7 km/h 89 % 0.0 mm
04:37 12.2 °C 10.4 °C 1011.1 hPa SW 8.0 km/h 12.9 km/h 89 % 0.0 mm
04:42 12.2 °C 10.4 °C 1011.1 hPa WSW 3.2 km/h 12.9 km/h 89 % 0.0 mm
04:47 12.2 °C 10.4 °C 1011.1 hPa SSW 6.4 km/h 12.9 km/h 89 % 0.0 mm
04:52 12.2 °C 10.4 °C 1011.4 hPa SW 4.8 km/h 12.9 km/h 89 % 0.0 mm
05:02 12.1 °C 10.5 °C 1011.4 hPa SW 6.4 km/h 12.9 km/h 90 % 0.0 mm
05:17 12.0 °C 10.4 °C 1011.4 hPa SW 6.4 km/h 11.3 km/h 90 % 0.0 mm
05:27 11.9 °C 10.3 °C 1011.4 hPa SW 6.4 km/h 9.7 km/h 90 % 0.0 mm
05:32 11.8 °C 10.2 °C 1011.4 hPa SW 1.6 km/h 14.5 km/h 90 % 0.0 mm
05:37 11.8 °C 10.2 °C 1011.4 hPa SW 3.2 km/h 14.5 km/h 90 % 0.0 mm
05:42 11.7 °C 10.1 °C 1011.4 hPa SW 3.2 km/h 14.5 km/h 90 % 0.0 mm
05:52 11.6 °C 10.2 °C 1011.4 hPa SW 4.8 km/h 11.3 km/h 91 % 0.0 mm
05:57 11.6 °C 10.2 °C 1011.4 hPa SW 4.8 km/h 11.3 km/h 91 % 0.0 mm
06:02 11.6 °C 10.2 °C 1011.4 hPa SW 4.8 km/h 11.3 km/h 91 % 0.0 mm
06:12 11.5 °C 10.1 °C 1011.4 hPa SW 1.6 km/h 9.7 km/h 91 % 0.0 mm
06:17 11.5 °C 10.1 °C 1011.4 hPa Calm   9.7 km/h 91 % 0.0 mm
06:22 11.5 °C 10.1 °C 1011.7 hPa SW 4.8 km/h 9.7 km/h 91 % 0.0 mm
06:27 11.5 °C 10.1 °C 1011.7 hPa SSW 1.6 km/h 9.7 km/h 91 % 0.0 mm
06:32 11.4 °C 10.1 °C 1011.7 hPa SSW 4.8 km/h 9.7 km/h 92 % 0.0 mm
06:37 11.4 °C 10.1 °C 1011.7 hPa South 3.2 km/h 9.7 km/h 92 % 0.0 mm
06:42 11.3 °C 10.0 °C 1011.7 hPa SSW 3.2 km/h 9.7 km/h 92 % 0.0 mm
06:47 11.3 °C 10.2 °C 1011.7 hPa WSW 8.0 km/h 9.7 km/h 93 % 0.0 mm
06:52 11.4 °C 10.3 °C 1011.7 hPa SSW 3.2 km/h 11.3 km/h 93 % 0.0 mm
06:57 11.4 °C 10.3 °C 1011.7 hPa SW 4.8 km/h 11.3 km/h 93 % 0.0 mm
07:02 11.4 °C 10.3 °C 1011.7 hPa WSW 8.0 km/h 11.3 km/h 93 % 0.0 mm
07:07 11.4 °C 10.3 °C 1012.1 hPa WSW 6.4 km/h 11.3 km/h 93 % 0.0 mm
07:12 11.4 °C 10.3 °C 1012.1 hPa West 1.6 km/h 14.5 km/h 93 % 0.0 mm
07:17 11.4 °C 10.3 °C 1012.1 hPa SW 8.0 km/h 14.5 km/h 93 % 0.0 mm
07:22 11.4 °C 10.1 °C 1012.1 hPa SW 9.7 km/h 16.1 km/h 92 % 0.0 mm
07:27 11.4 °C 10.1 °C 1012.4 hPa WSW 1.6 km/h 16.1 km/h 92 % 0.0 mm
07:32 11.3 °C 10.0 °C 1012.4 hPa West 11.3 km/h 16.1 km/h 92 % 0.0 mm
07:42 11.2 °C 9.9 °C 1012.4 hPa WSW 8.0 km/h 14.5 km/h 92 % 0.0 mm
07:52 11.1 °C 9.8 °C 1012.8 hPa WSW 8.0 km/h 16.1 km/h 92 % 0.0 mm
07:57 11.1 °C 9.8 °C 1012.8 hPa WSW 4.8 km/h 16.1 km/h 92 % 0.0 mm
08:02 11.1 °C 9.8 °C 1012.8 hPa West 1.6 km/h 16.1 km/h 92 % 0.0 mm
08:07 11.2 °C 9.9 °C 1012.8 hPa West 12.9 km/h 12.9 km/h 92 % 0.0 mm
08:12 11.3 °C 10.0 °C 1012.8 hPa SW 11.3 km/h 12.9 km/h 92 % 0.0 mm
08:17 11.4 °C 10.1 °C 1012.8 hPa WSW 1.6 km/h 17.7 km/h 92 % 0.0 mm
08:22 11.5 °C 10.2 °C 1012.8 hPa SW 6.4 km/h 20.9 km/h 92 % 0.0 mm
08:32 11.7 °C 10.3 °C 1013.1 hPa West 8.0 km/h 17.7 km/h 91 % 0.0 mm
08:37 11.9 °C 10.3 °C 1013.1 hPa SW 11.3 km/h 22.5 km/h 90 % 0.0 mm
08:42 11.9 °C 10.1 °C 1013.1 hPa West 8.0 km/h 22.5 km/h 89 % 0.0 mm
08:47 11.9 °C 10.0 °C 1013.1 hPa West 6.4 km/h 22.5 km/h 88 % 0.0 mm
08:57 11.9 °C 9.8 °C 1013.4 hPa SSW 4.8 km/h 22.5 km/h 87 % 0.0 mm
09:02 12.0 °C 9.9 °C 1013.4 hPa SW 6.4 km/h 22.5 km/h 87 % 0.0 mm
09:07 12.0 °C 9.7 °C 1013.4 hPa WSW 8.0 km/h 16.1 km/h 86 % 0.0 mm
09:12 12.1 °C 10.0 °C 1013.8 hPa West 14.5 km/h 14.5 km/h 87 % 0.0 mm
09:17 12.1 °C 10.0 °C 1013.8 hPa WNW 4.8 km/h 16.1 km/h 87 % 0.0 mm
09:22 12.1 °C 10.0 °C 1013.8 hPa WNW 6.4 km/h 17.7 km/h 87 % 0.0 mm
09:32 12.1 °C 10.0 °C 1014.1 hPa WSW 19.3 km/h 19.3 km/h 87 % 0.0 mm
09:37 12.1 °C 9.8 °C 1014.1 hPa WSW 4.8 km/h 17.7 km/h 86 % 0.0 mm
09:42 12.2 °C 9.9 °C 1014.1 hPa WSW 8.0 km/h 19.3 km/h 86 % 0.0 mm
09:47 12.3 °C 10.0 °C 1014.1 hPa SW 6.4 km/h 19.3 km/h 86 % 0.0 mm
09:52 12.4 °C 9.9 °C 1014.4 hPa West 14.5 km/h 19.3 km/h 85 % 0.0 mm
09:57 12.5 °C 10.0 °C 1014.4 hPa West 8.0 km/h 17.7 km/h 85 % 0.0 mm
10:02 12.6 °C 10.1 °C 1014.4 hPa West 4.8 km/h 17.7 km/h 85 % 0.0 mm
10:12 12.6 °C 10.0 °C 1014.4 hPa West 4.8 km/h 17.7 km/h 84 % 0.0 mm
10:17 12.5 °C 9.9 °C 1014.4 hPa WNW 8.0 km/h 17.7 km/h 84 % 0.0 mm
10:27 12.7 °C 9.9 °C 1014.4 hPa WNW 9.7 km/h 17.7 km/h 83 % 0.0 mm
10:32 12.8 °C 9.8 °C 1014.8 hPa West 12.9 km/h 17.7 km/h 82 % 0.0 mm
10:37 13.1 °C 10.1 °C 1014.8 hPa WNW 12.9 km/h 17.7 km/h 82 % 0.0 mm
10:42 13.2 °C 10.0 °C 1014.8 hPa West 4.8 km/h 17.7 km/h 81 % 0.0 mm
10:52 13.1 °C 9.9 °C 1014.8 hPa West 3.2 km/h 22.5 km/h 81 % 0.0 mm
10:57 13.2 °C 10.0 °C 1014.8 hPa WSW 12.9 km/h 22.5 km/h 81 % 0.0 mm
11:02 13.1 °C 9.9 °C 1014.8 hPa West 8.0 km/h 22.5 km/h 81 % 0.0 mm
11:07 13.2 °C 10.0 °C 1014.8 hPa WSW 17.7 km/h 22.5 km/h 81 % 0.0 mm
11:12 13.4 °C 10.0 °C 1014.8 hPa West 9.7 km/h 22.5 km/h 80 % 0.0 mm
11:17 13.7 °C 10.3 °C 1014.8 hPa WSW 14.5 km/h 27.4 km/h 80 % 0.0 mm
11:22 13.8 °C 10.2 °C 1015.1 hPa WSW 14.5 km/h 27.4 km/h 79 % 0.0 mm
11:27 13.7 °C 9.7 °C 1015.1 hPa WSW 19.3 km/h 27.4 km/h 77 % 0.0 mm
11:32 13.8 °C 10.0 °C 1015.1 hPa SW 14.5 km/h 30.6 km/h 78 % 0.0 mm
11:42 14.2 °C 10.2 °C 1015.1 hPa SSW 9.7 km/h 30.6 km/h 77 % 0.0 mm
11:52 14.3 °C 10.1 °C 1015.1 hPa WSW 11.3 km/h 27.4 km/h 76 % 0.0 mm
12:02 14.2 °C 9.6 °C 1015.5 hPa NW 12.9 km/h 27.4 km/h 74 % 0.0 mm
12:12 14.4 °C 10.0 °C 1015.5 hPa WSW 17.7 km/h 27.4 km/h 75 % 0.0 mm
12:17 14.7 °C 10.1 °C 1015.5 hPa WNW 17.7 km/h 27.4 km/h 74 % 0.0 mm
12:22 14.8 °C 10.0 °C 1015.5 hPa WNW 12.9 km/h 27.4 km/h 73 % 0.0 mm
12:27 15.1 °C 10.1 °C 1015.5 hPa West 9.7 km/h 27.4 km/h 72 % 0.0 mm
12:32 15.2 °C 9.8 °C 1015.5 hPa WNW 11.3 km/h 27.4 km/h 70 % 0.0 mm
12:37 15.3 °C 10.1 °C 1015.5 hPa West 6.4 km/h 27.4 km/h 71 % 0.0 mm
12:42 15.3 °C 9.9 °C 1015.5 hPa West 20.9 km/h 25.7 km/h 70 % 0.0 mm
12:47 15.3 °C 10.1 °C 1015.5 hPa SW 8.0 km/h 25.7 km/h 71 % 0.0 mm
12:52 15.5 °C 9.4 °C 1015.5 hPa West 11.3 km/h 30.6 km/h 67 % 0.0 mm
12:57 15.6 °C 9.7 °C 1015.5 hPa West 9.7 km/h 30.6 km/h 68 % 0.0 mm
13:02 15.7 °C 9.8 °C 1015.5 hPa West 11.3 km/h 30.6 km/h 68 % 0.0 mm
13:07 15.9 °C 9.3 °C 1015.8 hPa WSW 19.3 km/h 30.6 km/h 65 % 0.0 mm
13:12 16.1 °C 10.0 °C 1015.8 hPa WSW 20.9 km/h 29.0 km/h 67 % 0.0 mm
13:22 16.3 °C 9.9 °C 1015.8 hPa West 12.9 km/h 29.0 km/h 66 % 0.0 mm
13:32 16.6 °C 10.0 °C 1015.8 hPa WSW 19.3 km/h 29.0 km/h 65 % 0.0 mm
13:37 16.2 °C 9.6 °C 1015.8 hPa WSW 11.3 km/h 27.4 km/h 65 % 0.0 mm
13:42 16.3 °C 9.7 °C 1015.8 hPa West 9.7 km/h 27.4 km/h 65 % 0.0 mm
13:47 16.7 °C 9.4 °C 1015.8 hPa West 19.3 km/h 27.4 km/h 62 % 0.0 mm
13:57 16.8 °C 9.2 °C 1015.8 hPa WSW 8.0 km/h 24.1 km/h 61 % 0.0 mm
14:02 16.7 °C 9.4 °C 1016.1 hPa SW 14.5 km/h 24.1 km/h 62 % 0.0 mm
14:07 16.5 °C 9.0 °C 1015.8 hPa WNW 11.3 km/h 24.1 km/h 61 % 0.0 mm
14:12 16.7 °C 9.1 °C 1015.8 hPa West 22.5 km/h 27.4 km/h 61 % 0.0 mm
14:17 16.7 °C 9.4 °C 1015.8 hPa West 9.7 km/h 27.4 km/h 62 % 0.0 mm
14:22 16.8 °C 8.7 °C 1015.8 hPa WSW 20.9 km/h 25.7 km/h 59 % 0.0 mm
14:32 17.4 °C 8.8 °C 1015.8 hPa WNW 12.9 km/h 25.7 km/h 57 % 0.0 mm
14:37 17.2 °C 9.1 °C 1015.8 hPa WSW 12.9 km/h 27.4 km/h 59 % 0.0 mm
14:42 17.4 °C 9.3 °C 1015.8 hPa WSW 11.3 km/h 27.4 km/h 59 % 0.0 mm
14:47 17.5 °C 8.9 °C 1015.8 hPa SSW 11.3 km/h 27.4 km/h 57 % 0.0 mm
14:52 17.8 °C 8.9 °C 1015.8 hPa West 12.9 km/h 25.7 km/h 56 % 0.0 mm
14:57 17.6 °C 8.7 °C 1015.8 hPa WSW 11.3 km/h 25.7 km/h 56 % 0.0 mm
15:02 18.0 °C 8.6 °C 1015.8 hPa SW 16.1 km/h 25.7 km/h 54 % 0.0 mm
15:12 17.8 °C 8.4 °C 1015.5 hPa WSW 17.7 km/h 35.4 km/h 54 % 0.0 mm
15:17 17.9 °C 7.9 °C 1015.5 hPa West 12.9 km/h 35.4 km/h 52 % 0.0 mm
15:22 17.9 °C 8.2 °C 1015.5 hPa WSW 17.7 km/h 37.0 km/h 53 % 0.0 mm
15:27 18.1 °C 7.5 °C 1015.5 hPa WSW 22.5 km/h 37.0 km/h 50 % 0.0 mm
15:32 18.3 °C 8.0 °C 1015.5 hPa WSW 16.1 km/h 37.0 km/h 51 % 0.0 mm
15:37 18.2 °C 8.2 °C 1015.5 hPa WNW 14.5 km/h 35.4 km/h 52 % 0.0 mm
15:42 18.4 °C 7.5 °C 1015.5 hPa West 16.1 km/h 35.4 km/h 49 % 0.0 mm
15:52 18.6 °C 7.7 °C 1015.5 hPa WNW 17.7 km/h 29.0 km/h 49 % 0.0 mm
15:57 18.6 °C 7.4 °C 1015.5 hPa SW 20.9 km/h 29.0 km/h 48 % 0.0 mm
16:02 18.6 °C 7.1 °C 1015.5 hPa WNW 9.7 km/h 33.8 km/h 47 % 0.0 mm
16:07 18.4 °C 7.2 °C 1015.5 hPa WSW 14.5 km/h 33.8 km/h 48 % 0.0 mm
16:12 18.4 °C 7.2 °C 1015.5 hPa West 19.3 km/h 33.8 km/h 48 % 0.0 mm
16:17 18.4 °C 7.5 °C 1015.8 hPa West 17.7 km/h 25.7 km/h 49 % 0.0 mm
16:22 18.2 °C 7.3 °C 1015.8 hPa West 17.7 km/h 27.4 km/h 49 % 0.0 mm
16:32 18.6 °C 6.8 °C 1015.8 hPa WSW 11.3 km/h 30.6 km/h 46 % 0.0 mm
16:37 18.8 °C 6.6 °C 1015.8 hPa West 25.7 km/h 30.6 km/h 45 % 0.0 mm
16:42 18.7 °C 6.5 °C 1015.8 hPa West 11.3 km/h 30.6 km/h 45 % 0.0 mm
16:47 18.9 °C 6.7 °C 1015.8 hPa WNW 14.5 km/h 30.6 km/h 45 % 0.0 mm
16:52 18.8 °C 6.6 °C 1015.8 hPa WNW 22.5 km/h 32.2 km/h 45 % 0.0 mm
16:57 18.7 °C 6.5 °C 1015.8 hPa West 9.7 km/h 32.2 km/h 45 % 0.0 mm
17:02 18.9 °C 7.3 °C 1015.8 hPa NW 6.4 km/h 32.2 km/h 47 % 0.0 mm
17:07 18.3 °C 7.1 °C 1015.8 hPa WSW 16.1 km/h 32.2 km/h 48 % 0.0 mm
17:12 18.4 °C 7.5 °C 1015.8 hPa SW 14.5 km/h 29.0 km/h 49 % 0.0 mm
17:22 18.9 °C 7.3 °C 1015.8 hPa WSW 9.7 km/h 24.1 km/h 47 % 0.0 mm
17:32 18.8 °C 7.6 °C 1015.8 hPa WNW 17.7 km/h 33.8 km/h 48 % 0.0 mm
17:37 18.9 °C 8.0 °C 1015.8 hPa West 19.3 km/h 33.8 km/h 49 % 0.0 mm
17:42 18.6 °C 7.4 °C 1015.8 hPa WSW 22.5 km/h 29.0 km/h 48 % 0.0 mm
17:47 18.6 °C 7.7 °C 1015.5 hPa WSW 12.9 km/h 29.0 km/h 49 % 0.0 mm
17:52 18.4 °C 7.5 °C 1015.5 hPa WNW 14.5 km/h 29.0 km/h 49 % 0.0 mm
17:57 18.2 °C 7.9 °C 1015.5 hPa WSW 8.0 km/h 30.6 km/h 51 % 0.0 mm
18:02 18.0 °C 8.0 °C 1015.5 hPa WNW 12.9 km/h 30.6 km/h 52 % 0.0 mm
18:07 18.0 °C 8.3 °C 1015.5 hPa West 4.8 km/h 30.6 km/h 53 % 0.0 mm
18:12 18.3 °C 8.3 °C 1015.5 hPa WSW 11.3 km/h 17.7 km/h 52 % 0.0 mm
18:17 18.5 °C 8.2 °C 1015.8 hPa WSW 20.9 km/h 20.9 km/h 51 % 0.0 mm
18:22 18.5 °C 8.2 °C 1015.8 hPa WNW 14.5 km/h 29.0 km/h 51 % 0.0 mm
18:27 18.4 °C 8.1 °C 1015.8 hPa West 16.1 km/h 29.0 km/h 51 % 0.0 mm
18:32 18.3 °C 8.0 °C 1015.8 hPa West 17.7 km/h 29.0 km/h 51 % 0.0 mm
18:37 18.2 °C 8.2 °C 1015.8 hPa WNW 8.0 km/h 27.4 km/h 52 % 0.0 mm
18:42 18.1 °C 7.8 °C 1015.8 hPa West 11.3 km/h 27.4 km/h 51 % 0.0 mm
18:52 17.7 °C 8.0 °C 1015.8 hPa West 9.7 km/h 25.7 km/h 53 % 0.0 mm
18:57 17.6 °C 7.9 °C 1015.8 hPa West 3.2 km/h 24.1 km/h 53 % 0.0 mm
19:02 17.5 °C 8.1 °C 1015.8 hPa WSW 6.4 km/h 19.3 km/h 54 % 0.0 mm
19:07 17.4 °C 8.3 °C 1015.8 hPa West 16.1 km/h 19.3 km/h 55 % 0.0 mm
19:12 17.3 °C 8.2 °C 1015.8 hPa West 8.0 km/h 19.3 km/h 55 % 0.0 mm
19:17 17.2 °C 8.3 °C 1015.8 hPa West 6.4 km/h 17.7 km/h 56 % 0.0 mm
19:22 17.2 °C 8.3 °C 1015.8 hPa WSW 6.4 km/h 17.7 km/h 56 % 0.0 mm
19:27 17.1 °C 8.5 °C 1015.8 hPa SSW 1.6 km/h 12.9 km/h 57 % 0.0 mm
19:32 16.9 °C 8.3 °C 1016.1 hPa SW 4.8 km/h 12.9 km/h 57 % 0.0 mm
19:37 16.9 °C 8.3 °C 1016.1 hPa WSW 4.8 km/h 9.7 km/h 57 % 0.0 mm
19:47 16.7 °C 8.4 °C 1015.8 hPa West 1.6 km/h 8.0 km/h 58 % 0.0 mm
19:52 16.6 °C 8.6 °C 1016.1 hPa SW 3.2 km/h 6.4 km/h 59 % 0.0 mm
19:57 16.6 °C 8.6 °C 1015.8 hPa SW 4.8 km/h 6.4 km/h 59 % 0.0 mm
20:02 16.6 °C 8.6 °C 1016.1 hPa West 1.6 km/h 6.4 km/h 59 % 0.0 mm
20:12 16.6 °C 8.6 °C 1016.1 hPa SW 4.8 km/h 9.7 km/h 59 % 0.0 mm
20:17 16.6 °C 8.6 °C 1016.1 hPa West 3.2 km/h 9.7 km/h 59 % 0.0 mm
20:22 16.6 °C 8.6 °C 1016.1 hPa WSW 6.4 km/h 9.7 km/h 59 % 0.0 mm
20:27 16.6 °C 8.8 °C 1016.1 hPa WSW 3.2 km/h 8.0 km/h 60 % 0.0 mm
20:32 16.4 °C 8.6 °C 1016.5 hPa WSW 4.8 km/h 8.0 km/h 60 % 0.0 mm
20:37 16.4 °C 8.9 °C 1016.5 hPa SW 8.0 km/h 8.0 km/h 61 % 0.0 mm
20:42 16.3 °C 8.8 °C 1016.5 hPa WSW 3.2 km/h 9.7 km/h 61 % 0.0 mm
20:52 16.3 °C 9.2 °C 1016.8 hPa WSW 8.0 km/h 20.9 km/h 63 % 0.0 mm
20:57 16.3 °C 9.2 °C 1016.8 hPa SW 9.7 km/h 20.9 km/h 63 % 0.0 mm
21:02 16.2 °C 9.4 °C 1016.8 hPa SSW 9.7 km/h 20.9 km/h 64 % 0.0 mm
21:07 16.2 °C 9.4 °C 1016.8 hPa SSW 8.0 km/h 16.1 km/h 64 % 0.0 mm
21:12 16.0 °C 9.4 °C 1016.8 hPa SW 8.0 km/h 16.1 km/h 65 % 0.0 mm
21:17 15.9 °C 9.3 °C 1017.2 hPa WSW 8.0 km/h 16.1 km/h 65 % 0.0 mm
21:22 15.8 °C 9.5 °C 1017.2 hPa SSW 6.4 km/h 14.5 km/h 66 % 0.0 mm
21:32 15.6 °C 9.5 °C 1016.8 hPa SW 6.4 km/h 11.3 km/h 67 % 0.0 mm
21:37 15.3 °C 9.4 °C 1016.8 hPa SSW 8.0 km/h 11.3 km/h 68 % 0.0 mm
21:42 15.0 °C 9.4 °C 1017.2 hPa SW 6.4 km/h 11.3 km/h 69 % 0.0 mm
21:47 14.8 °C 9.4 °C 1017.2 hPa SW 6.4 km/h 11.3 km/h 70 % 0.0 mm
21:52 14.7 °C 9.3 °C 1016.8 hPa SSW 6.4 km/h 12.9 km/h 70 % 0.0 mm
21:57 14.4 °C 9.2 °C 1016.8 hPa SW 4.8 km/h 12.9 km/h 71 % 0.0 mm
22:02 14.1 °C 8.9 °C 1016.5 hPa SSW 4.8 km/h 9.7 km/h 71 % 0.0 mm
22:07 13.8 °C 9.0 °C 1016.5 hPa SW 11.3 km/h 11.3 km/h 73 % 0.0 mm
22:12 13.7 °C 9.1 °C 1016.5 hPa WSW 4.8 km/h 11.3 km/h 74 % 0.0 mm
22:22 13.6 °C 9.3 °C 1016.1 hPa SW 8.0 km/h 12.9 km/h 75 % 0.0 mm
22:32 13.2 °C 9.3 °C 1016.1 hPa SSW 4.8 km/h 12.9 km/h 77 % 0.0 mm
22:42 13.4 °C 9.4 °C 1016.5 hPa SW 6.4 km/h 14.5 km/h 77 % 0.0 mm
22:47 13.4 °C 9.3 °C 1016.5 hPa South 6.4 km/h 14.5 km/h 76 % 0.0 mm
22:52 13.3 °C 9.4 °C 1016.5 hPa SW 6.4 km/h 14.5 km/h 77 % 0.0 mm
22:57 13.3 °C 9.4 °C 1016.5 hPa SSW 9.7 km/h 12.9 km/h 77 % 0.0 mm
23:02 13.3 °C 9.2 °C 1016.5 hPa SW 6.4 km/h 14.5 km/h 76 % 0.0 mm
23:07 13.3 °C 9.2 °C 1016.5 hPa SW 9.7 km/h 14.5 km/h 76 % 0.0 mm
23:12 13.3 °C 9.2 °C 1016.5 hPa SW 12.9 km/h 12.9 km/h 76 % 0.0 mm
23:17 13.4 °C 9.3 °C 1016.8 hPa WSW 9.7 km/h 12.9 km/h 76 % 0.0 mm
23:22 13.4 °C 9.3 °C 1016.8 hPa WSW 4.8 km/h 16.1 km/h 76 % 0.0 mm
23:32 13.3 °C 9.2 °C 1016.8 hPa SW 6.4 km/h 16.1 km/h 76 % 0.0 mm
23:37 13.2 °C 9.3 °C 1016.8 hPa SSW 11.3 km/h 16.1 km/h 77 % 0.0 mm
23:42 13.0 °C 9.3 °C 1016.8 hPa SW 6.4 km/h 16.1 km/h 78 % 0.0 mm
23:47 12.9 °C 9.2 °C 1016.8 hPa SSW 4.8 km/h 16.1 km/h 78 % 0.0 mm
23:52 12.7 °C 9.2 °C 1016.8 hPa SW 11.3 km/h 12.9 km/h 79 % 0.0 mm
23:57 12.6 °C 9.2 °C 1016.8 hPa SSW 4.8 km/h 12.9 km/h 80 % 0.0 mm
Meteo18
Compliments of Weather Underground - 4 mb

Script developed by  Jim McMurry - jmcmurry@mwt.net Adapted for the template by  Wim van der Kuil - Leuven-Template.eu

You find our weather info also at:

European Weather Network

Weather Underground

Equipment we use:

Weather-station
Davis Vue

Weather-program
Meteohub

Weather-server
Raspberry PI 2 B+

Provider
1 and 1

Davis Vue

Meteohub

Raspberry PI 2 B+

1 and 1